Weather History for Garrison, ND

Change the Weather History Date:

Friday, March 15, 2013

  Actual Average Record
Temperature  
Mean Temperature 10 °F -  
Max Temperature 21 °F 29 °F 65 °F (2012)
Min Temperature -2 °F 12 °F -13 °F (1997)
Degree Days  
Heating Degree Days 54    
Moisture  
Dew Point 7 °F    
Average Humidity 82    
Maximum Humidity 87    
Minimum Humidity 80    
Precipitation  
Precipitation 0.06 in - - ()
Sea Level Pressure  
Sea Level Pressure 30.13 in    
Wind  
Wind Speed 13 mph (ENE)    
Max Wind Speed 18 mph    
Max Gust Speed 28 mph    
Averages and records for this station are not official NWS values.
T = Trace of Precipitation, MM = Missing Value Source: NWS Daily Summary

Daily Weather History Graph

Daily Weather History Graph

Search for Another Location

Airport:

Trip Planner

Search our weather history database for the weather conditions in past years. The results will help you decide how hot, cold, wet, or windy it might be!

Date:

Astronomy

Mar. 15, 2013 Rise Set
Actual Time 7:58 AM CDT 7:51 PM CDT
Civil Twilight 7:27 AM CDT 8:22 PM CDT
Nautical Twilight 6:51 AM CDT 8:58 PM CDT
Astronomical Twilight 6:14 AM CDT 9:35 PM CDT
Moon 9:31 AM CDT (3/15) No Moon Set
Length of Visible Light 12h 54m
Length of Day
11h 53m
Waxing Crescent, 15% of the Moon is Illuminated
Mar 15
Waxing Crescent
Mar 19
First Quarter
Mar 27
Full
Apr 2
Last Quarter
Apr 10
New

Hourly Weather History & Observations

Time (CDT) Temp. Windchill Dew Point Humidity Pressure Visibility Wind Dir Wind Speed Gust Speed Precip Events Conditions
12:52 AM 21.9 °F 10.4 °F 18.0 °F 85% 30.15 in - ENE 11.5 mph - N/A   Unknown
1:52 AM 21.0 °F 7.6 °F 17.1 °F 85% 30.13 in - East 15.0 mph - N/A   Unknown
2:52 AM 19.9 °F 6.2 °F 16.0 °F 85% 30.12 in - East 15.0 mph - N/A   Unknown
3:52 AM 19.9 °F 5.7 °F 16.0 °F 85% 30.11 in - East 16.1 mph - N/A   Unknown
4:52 AM 19.0 °F 5.0 °F 15.1 °F 85% 30.11 in - East 15.0 mph - N/A   Unknown
5:52 AM 17.1 °F 2.5 °F 12.0 °F 81% 30.12 in - East 15.0 mph 21.9 mph N/A   Unknown
6:52 AM 15.1 °F 1.1 °F 10.0 °F 80% 30.11 in - East 12.7 mph 21.9 mph N/A   Unknown
7:52 AM 14.0 °F -2.5 °F 10.0 °F 84% 30.11 in - East 17.3 mph - N/A   Unknown
8:52 AM 12.9 °F -3.9 °F 9.0 °F 84% 30.09 in - East 17.3 mph - N/A   Unknown
9:52 AM 12.9 °F -4.4 °F 9.0 °F 84% 30.05 in - East 18.4 mph 24.2 mph 0.01 in   Unknown
10:52 AM 12.0 °F 2.7 °F 8.1 °F 84% 30.09 in - Variable 5.8 mph - 0.01 in   Unknown
11:52 AM 12.0 °F -5.6 °F 7.0 °F 80% 30.04 in - East 18.4 mph 27.6 mph 0.03 in   Unknown
12:52 PM 12.0 °F -0.4 °F 7.0 °F 80% 30.11 in - ENE 9.2 mph - 0.01 in   Unknown
1:52 PM 12.0 °F -5.1 °F 7.0 °F 80% 30.05 in - East 17.3 mph - N/A   Unknown
2:52 PM 10.9 °F -2.6 °F 6.1 °F 81% 30.09 in - ENE 10.4 mph 16.1 mph N/A   Unknown
3:52 PM 10.9 °F -1.8 °F 6.1 °F 81% 30.08 in - NE 9.2 mph - N/A   Unknown
4:52 PM 9.0 °F -5.1 °F 3.9 °F 80% 30.09 in - ENE 10.4 mph - N/A   Unknown
5:52 PM 8.1 °F -5.3 °F 3.0 °F 80% 30.13 in - NE 9.2 mph - N/A   Unknown
6:52 PM 7.0 °F -5.7 °F 1.9 °F 80% 30.16 in - NE 8.1 mph - N/A   Unknown
7:52 PM 7.0 °F -5.7 °F 1.9 °F 80% 30.19 in - NNE 8.1 mph - N/A   Unknown
8:52 PM 6.1 °F -5.6 °F 1.0 °F 80% 30.22 in - NNE 6.9 mph - N/A   Unknown
9:52 PM 3.9 °F -5.3 °F -0.0 °F 84% 30.25 in - NNE 4.6 mph - N/A   Unknown
10:52 PM -0.0 °F -7.9 °F -4.0 °F 83% 30.28 in - North 3.5 mph - N/A   Unknown
11:52 PM -2.0 °F -15.4 °F -5.1 °F 87% 30.28 in - North 6.9 mph - N/A   Unknown